Flag Weather past 2 weeks in Indre Arna, Norway

Now
42 °F

Quite cool.


Feels Like: 42 °F
Forecast: 30 / 42 °F
Wind: 1 mph from Southeast

Location: Bergen / Florida

Current Time: Nov 24, 2014 at 5:42:47 PM

Latest Report: Nov 24, 2014 at 5:00 PM


Visibility: N/A

Pressure: 30.01 "Hg

Humidity: 87%

Dew point: 39 °F

Location of Indre ArnaLocation

Historic Weather in Indre Arna — Graph

°F

Indre Arna temperature yesterday

Maximum temperature yesterday: 49 °F (at 12:00 PM)
Minimum temperature yesterday: 41 °F (at 10:00 PM)
Average temperature yesterday: 45 °F

Past Weeks' High & Low Weather Summary

 TemperatureHumidityPressure
High57 °F (Nov 12, 7:00 PM)89% (Nov 11, 9:00 AM)30.47 "Hg (Nov 11, 9:00 AM)
Low34 °F (Nov 22, 10:00 AM)38% (Nov 12, 11:00 AM)29.54 "Hg (Nov 10, 6:00 AM)
Average45 °F71%30.01 "Hg
* Reported Nov 9 4:00 PM — Nov 24 4:00 PM, Indre Arna, Weather by CustomWeather, © 2014

Note: Actual official high and low records may vary slightly from our data, if they occured in-between our weather recording intervals... More about our weather records

Advertising

Indre Arna weather history for previous 24 hours

 ConditionsComfort  
Time TempWeatherWind HumidityBarometerVisibility
4:00 PM
Nov 24
43 °FSprinkles. Passing clouds.1 mph87%29.98 "Hg19 mi
3:00 PM43 °FQuite cool.2 mph87%29.96 "HgN/A
2:00 PM44 °FQuite cool.1 mph87%29.94 "HgN/A
1:00 PM44 °FQuite cool.2 mph88%29.93 "HgN/A
12:00 PM44 °FQuite cool.2 mph88%29.91 "HgN/A
11:00 AM43 °FQuite cool.2 mph88%29.89 "HgN/A
10:00 AM43 °FSprinkles. Overcast.3 mph88%29.87 "Hg19 mi
9:00 AM42 °FQuite cool.2 mph88%29.84 "HgN/A
8:00 AM41 °FQuite cool.2 mph88%29.82 "HgN/A
7:00 AM40 °FRain. Overcast.2 mph88%29.81 "Hg16 mi
6:00 AM40 °FQuite cool.1 mph88%29.80 "HgN/A
5:00 AM40 °FQuite cool.3 mph88%29.78 "HgN/A
4:00 AM40 °FChilly.1 mph88%29.78 "HgN/A
3:00 AM40 °FQuite cool.1 mph88%29.77 "HgN/A
2:00 AM40 °FQuite cool.2 mph88%29.75 "HgN/A
1:00 AM41 °FQuite cool.3 mph88%29.75 "HgN/A
12:00 AM41 °FQuite cool.2 mph88%29.75 "HgN/A
11:00 PM
Nov 23
42 °FQuite cool.2 mph88%29.75 "HgN/A
10:00 PM41 °FLight rain. Overcast.1 mph87%29.75 "Hg12 mi
9:00 PM42 °FQuite cool.1 mph86%29.78 "HgN/A
8:00 PM42 °FQuite cool.1 mph85%29.80 "HgN/A
7:00 PM43 °FLight rain. Overcast.1 mph84%29.83 "Hg12 mi
6:00 PM44 °FQuite cool.2 mph82%29.84 "HgN/A
5:00 PM45 °FCool.3 mph78%29.87 "HgN/A
Weather by CustomWeather, © 2014

See weather overviewHow to use our weather pages